TimeEDT,TemperatureF,Dew PointF,Humidity,Sea Level PressureIn,VisibilityMPH,Wind Direction,Wind SpeedMPH,Gust SpeedMPH,PrecipitationIn,Events,Conditions,WindDirDegrees,DateUTC
12:53 AM,73.9,69.1,85,30.01,10.0,South,5.8,-,N/A,,Overcast,190,2013-11-01 04:53:00
1:53 AM,73.0,69.1,87,30.01,10.0,South,4.6,-,N/A,,Overcast,190,2013-11-01 05:53:00
2:53 AM,71.1,69.1,93,30.00,8.0,SSW,4.6,-,N/A,,Mostly Cloudy,210,2013-11-01 06:53:00
3:53 AM,71.1,68.0,90,29.99,8.0,South,3.5,-,N/A,,Mostly Cloudy,190,2013-11-01 07:53:00
4:53 AM,71.1,68.0,90,29.99,10.0,SSW,3.5,-,N/A,,Mostly Cloudy,200,2013-11-01 08:53:00
5:53 AM,71.1,68.0,90,29.99,10.0,South,3.5,-,N/A,,Overcast,190,2013-11-01 09:53:00
6:53 AM,72.0,69.1,91,30.00,10.0,South,4.6,-,N/A,,Mostly Cloudy,180,2013-11-01 10:53:00
7:53 AM,72.0,69.1,91,29.99,10.0,South,5.8,-,N/A,,Mostly Cloudy,190,2013-11-01 11:53:00
8:53 AM,73.9,70.0,87,29.99,10.0,South,6.9,-,N/A,,Scattered Clouds,190,2013-11-01 12:53:00
9:53 AM,78.1,71.1,79,29.99,10.0,SSW,10.4,-,N/A,,Scattered Clouds,200,2013-11-01 13:53:00
10:53 AM,81.0,68.0,65,29.97,10.0,South,13.8,-,N/A,,Scattered Clouds,190,2013-11-01 14:53:00
11:53 AM,84.0,68.0,58,29.94,10.0,SSW,12.7,20.7,N/A,,Scattered Clouds,200,2013-11-01 15:53:00
12:53 PM,86.0,64.9,49,29.93,10.0,SSW,15.0,28.8,N/A,,Scattered Clouds,210,2013-11-01 16:53:00
1:53 PM,88.0,64.0,45,29.90,10.0,SSW,16.1,24.2,N/A,,Scattered Clouds,200,2013-11-01 17:53:00
2:53 PM,86.0,64.0,48,29.89,10.0,SSW,13.8,20.7,N/A,,Mostly Cloudy,210,2013-11-01 18:53:00
3:53 PM,86.0,64.0,48,29.88,10.0,SSW,10.4,17.3,N/A,,Mostly Cloudy,200,2013-11-01 19:53:00
4:53 PM,84.9,63.0,48,29.87,10.0,SW,12.7,-,N/A,,Mostly Cloudy,220,2013-11-01 20:53:00
5:53 PM,82.9,62.1,49,29.87,10.0,SSW,5.8,-,N/A,,Mostly Cloudy,210,2013-11-01 21:53:00
6:53 PM,80.1,62.1,54,29.88,10.0,SW,4.6,-,N/A,,Mostly Cloudy,230,2013-11-01 22:53:00
7:53 PM,77.0,64.0,64,29.89,10.0,SSW,4.6,-,N/A,,Mostly Cloudy,210,2013-11-01 23:53:00
8:53 PM,75.0,64.9,71,29.89,10.0,SW,3.5,-,N/A,,Scattered Clouds,230,2013-11-02 00:53:00
9:53 PM,75.0,64.9,71,29.89,10.0,South,3.5,-,N/A,,Scattered Clouds,190,2013-11-02 01:53:00
10:53 PM,73.9,66.0,76,29.90,10.0,SSW,3.5,-,N/A,,Mostly Cloudy,200,2013-11-02 02:53:00
11:53 PM,73.0,66.9,81,29.90,10.0,South,3.5,-,N/A,,Scattered Clouds,190,2013-11-02 03:53:00